Voltar ao catálogo

CZ-4 DEB

LostSSO
NORAD 35324·DEBRIS·🇨🇳 China

Lançado Oct 14, 1999 de Taiyuan Satellite Launch Center

Loading…

Próximas Passagens (próximas 24 horas)

TLE

ObsoletoSource: Space-Track

Época: Oct 1, 2011, 03:51 UTC

1 35324U 99057SC  11274.16073958 -.00003280  00000-0 -11189-2 0  9998
2 35324  98.3666 234.7514 0095375 207.6294 152.0497 14.33273117302669

Acompanhe CZ-4 DEB em tempo real com AllMySat

Download on the App Store